GW2240 Weather Reports


time (UTC)temp
C
wind
direction
speed
KPH
gust
KPH
rain 1hr
cm
rain 24hr
cm
rain mn
cm
humidity
%
barometer
mb
20260507091507 18 13 0.0 6.4 0.00 0.20 0.00 88 1013.4
20260507090007 18 25 0.0 6.4 0.00 0.20 0.00 88 1013.5
20260507084517 18 12 0.0 8.0 0.00 0.20 0.00 87 1013.4
20260507083004 18 14 1.6 16.1 0.00 0.20 0.00 87 1013.5
20260507081501 18 38 1.6 9.7 0.00 0.20 0.00 86 1013.3
20260507080101 18 54 1.6 11.3 0.00 0.20 0.00 86 1013.4
20260507074605 18 349 0.0 6.4 0.00 0.20 0.00 87 1013.6
20260507073057 18 7 0.0 9.7 0.00 0.20 0.00 86 1013.5
20260507071605 19 335 0.0 6.4 0.00 0.20 0.00 86 1013.5
20260507070106 19 46 0.0 6.4 0.00 0.20 0.00 85 1014.0
20260507064557 19 357 0.0 8.0 0.00 0.20 0.00 86 1013.8
20260507063053 19 329 0.0 8.0 0.00 0.20 0.00 85 1013.7
20260507061553 19 21 0.0 9.7 0.00 0.20 0.00 85 1013.9
20260507060051 19 247 0.0 8.0 0.00 0.20 0.00 85 1013.4
20260507054608 19 350 0.0 8.0 0.00 0.20 0.00 84 1013.7
20260507053058 19 350 0.0 8.0 0.00 0.20 0.00 85 1013.7
20260507051554 19 5 0.0 6.4 0.00 0.20 0.00 85 1013.6
20260507050050 19 360 0.0 12.9 0.00 0.20 0.00 84 1013.5
20260507044552 20 14 0.0 6.4 0.00 0.20 0.20 84 1013.6
20260507043042 20 358 0.0 6.4 0.00 0.20 0.20 84 1013.3
20260507041545 20 359 0.0 6.4 0.00 0.20 0.20 84 1013.2
20260507040139 20 21 1.6 9.7 0.00 0.20 0.20 84 1013.4
20260507034538 20 339 0.0 4.8 0.00 0.20 0.20 83 1013.4
20260507033036 21 13 0.0 8.0 0.00 0.20 0.20 83 1013.1
20260507031537 21 41 0.0 4.8 0.00 0.20 0.20 83 1012.9
20260507030031 21 344 0.0 8.0 0.00 0.20 0.20 83 1012.6
20260507024533 21 15 0.0 11.3 0.00 0.20 0.20 83 1012.1
20260507023023 21 47 1.6 9.7 0.00 0.20 0.20 83 1011.8
20260507021528 22 19 0.0 8.0 0.00 0.20 0.20 84 1011.6
20260507020020 22 7 0.0 6.4 0.00 0.20 0.20 84 1011.0
20260507014521 22 13 0.0 6.4 0.00 0.20 0.20 84 1010.7
20260507013016 22 14 0.0 8.0 0.00 0.20 0.20 84 1010.6
20260507011520 22 19 0.0 8.0 0.00 0.20 0.20 84 1010.2
20260507010021 23 2 0.0 9.7 0.00 0.20 0.20 84 1010.2
20260507004511 23 10 0.0 11.3 0.00 0.20 0.20 85 1009.9
20260507003010 23 342 0.0 14.5 0.00 0.20 0.20 84 1009.6
20260507001509 24 305 1.6 11.3 0.00 0.20 0.20 85 1009.3
20260507000009 25 331 0.0 11.3 0.00 0.20 0.20 84 1009.2
20260506234506 26 44 0.0 12.9 0.00 0.20 0.20 85 1009.1
20260506233006 27 13 0.0 0.0 0.00 0.20 0.20 89 1008.6
20260506231506 27 13 0.0 0.0 0.00 0.20 0.20 89 1008.5
20260506230006 27 13 0.0 0.0 0.00 0.20 0.20 90 1008.5
20260506224504 27 13 0.0 0.0 0.00 0.20 0.20 89 1008.5
20260506223004 27 13 0.0 0.0 0.00 0.20 0.20 87 1008.3
20260506221505 27 13 0.0 0.0 0.00 0.20 0.20 87 1008.2
20260506220003 27 13 0.0 0.0 0.00 0.20 0.20 86 1008.1
20260506214502 27 342 0.0 0.0 0.00 0.20 0.20 86 1008.3
20260506213002 27 342 0.0 0.0 0.00 0.20 0.20 87 1008.4
20260506211600 27 4 0.0 0.0 0.00 0.20 0.20 89 1008.2
20260506210058 27 360 0.0 0.0 0.00 0.20 0.20 90 1008.6
20260506204600 27 360 0.0 0.0 0.00 0.20 0.20 89 1008.6
20260506203057 27 17 0.0 0.0 0.00 0.20 0.20 92 1008.7
20260506201555 26 8 0.0 0.0 0.00 0.20 0.20 93 1008.9
20260506200056 26 8 0.0 0.0 0.00 0.20 0.20 93 1009.1
20260506194519 26 8 0.0 0.0 0.00 0.20 0.20 92 1009.0
20260506193057 26 18 0.0 0.0 0.00 0.20 0.20 92 1009.1
20260506191559 26 352 0.0 0.0 0.00 0.20 0.20 93 1009.3
20260506190053 26 352 0.0 0.0 0.00 0.20 0.20 95 1009.5
20260506184551 25 13 0.0 0.0 0.03 0.20 0.20 95 1009.6
20260506183100 25 1 0.0 0.0 0.13 0.20 0.20 95 1009.8
20260506181601 25 97 0.0 0.0 0.20 0.20 0.20 95 1010.2
20260506180048 25 97 0.0 0.0 0.20 0.20 0.20 94 1010.6
20260506174548 25 97 0.0 0.0 0.18 0.18 0.18 93 1010.8
20260506173112 25 97 0.0 0.0 0.08 0.08 0.08 91 1011.1
20260506171546 26 97 0.0 0.0 0.00 0.00 0.00 89 1011.0
20260506164544 26 97 0.0 0.0 0.00 0.00 0.00 88 1011.1
20260506163051 26 152 0.0 0.0 0.00 0.00 0.00 89 1010.8
20260506161540 26 40 0.0 0.0 0.00 0.00 0.00 90 1010.6
20260506160040 25 40 0.0 0.0 0.00 0.00 0.00 90 1010.5
20260506154542 25 40 0.0 0.0 0.00 0.00 0.00 90 1010.5
20260506153036 25 101 0.0 0.0 0.00 0.00 0.00 89 1010.4
20260506151533 25 81 0.0 0.0 0.00 0.00 0.00 90 1010.5
20260506150030 25 81 0.0 0.0 0.00 0.00 0.00 91 1010.1
20260506144528 25 234 0.0 0.0 0.00 0.00 0.00 92 1010.1
20260506143029 25 342 0.0 0.0 0.00 0.00 0.00 92 1009.8
20260506141527 25 196 0.0 0.0 0.00 0.00 0.00 93 1009.9
20260506140030 24 192 0.0 0.0 0.00 0.00 0.00 93 1009.9
20260506134524 24 192 0.0 0.0 0.00 0.00 0.00 94 1010.0
20260506133024 24 177 0.0 0.0 0.00 0.00 0.00 94 1010.2
20260506131525 23 177 0.0 0.0 0.00 0.00 0.00 94 1010.1
20260506130024 23 177 0.0 0.0 0.00 0.00 0.00 94 1009.9
20260506124521 23 177 0.0 0.0 0.00 0.00 0.00 94 1009.8
20260506123020 23 177 0.0 0.0 0.00 0.00 0.00 94 1009.7
20260506121518 23 177 0.0 0.0 0.00 0.00 0.00 94 1009.7
20260506120018 23 177 0.0 0.0 0.00 0.00 0.00 94 1009.6
20260506114521 23 177 0.0 0.0 0.00 0.00 0.00 94 1009.4
20260506113015 23 177 0.0 0.0 0.00 0.00 0.00 93 1009.2
20260506111514 23 177 0.0 0.0 0.00 0.00 0.00 93 1009.2
20260506110015 23 177 0.0 0.0 0.00 0.00 0.00 93 1008.8
20260506104533 23 177 0.0 0.0 0.00 0.00 0.00 93 1008.6
20260506103012 23 177 0.0 0.0 0.00 0.00 0.00 92 1008.6
20260506101511 23 177 0.0 0.0 0.00 0.00 0.00 92 1008.6
20260506100009 23 180 0.0 0.0 0.00 0.00 0.00 91 1008.6
20260506094509 24 173 0.0 1.6 0.00 0.00 0.00 91 1008.2
20260506093007 24 149 0.0 3.2 0.00 0.00 0.00 91 1008.2